Weather in Bukovel

Ukraine / Ivano-Frankovsk District     48°21′54″N   24°23′53″E
temp.,
°C
wind,
m/s
gust,
m/s
humid.,
%
clouds,
%
prec.,
mm/h
press.,
hPa
HPBL,
m
22 january, sat
sat2223:00−15sw249976 0.2 102096
02:00−12sw2397100 0.3 101891
05:00−12sw2397100 0.1 101772
08:00−15sw219968 0.2 101925
11:00−10wsw238998 0.0 1017363
14:00−9wsw2484100 0.1 1017666
17:00−10wsw1296100 1.6 1019244
20:00−12w1197100 3.4 102326
23 january, sun
sun2323:00−13w1298100 0.6 102557
02:00−15wsw1199100 0.9 102617
05:00−15wsw1199100 0.1 102720
08:00−11w1297100 1.1 1025109
11:00−9nne3993100 2.4 10251199
14:00−10nne3891100 3.6 10261120
17:00−11nne3995100 1.3 10291076
20:00−13ne2497100 2.3 1032243
24 january, mon
mon2423:00−17ne1110092 0.3 103713
02:00−20nne1110098 0.4 103912
05:00−22sse01100100 0.1 104110
08:00−22sw0110099 0.1 104310
11:00−11nne129010 0.0 1038215
14:00−8nne12836 0.0 1035450
17:00−15ne119963 0.0 103810
20:00−21ssw01100100 0.0 104210
25 january, tue
tue2523:00−22s119840 0.0 104210
02:00−22ssw11926 0.0 10419
05:00−21ssw11885 0.0 10399
08:00−21ssw11871 0.0 103910
11:00−8wnw116919 0.0 1031147
14:00−5w1269100 0.0 1028424
17:00−9sw219699 0.0 103024
20:00−12sw2296100 0.3 103161
26 january, wed
wed2623:00−12sw2395100 0.3 103098
02:00−13sw2397100 0.7 102994
05:00−15sw2198100 0.1 103029
08:00−13sw2298100 0.8 102942
11:00−6nw1294100 1.1 1026290
14:00−5n248163 1.7 1026965
17:00−12nnw119711 0.0 102910
20:00−18sw1110098 0.0 103312